User: anonymous   Login
Location: Acts Church of Fort Worth
(32.6786°N, 97.2668°W)
Time: 09:22:17
(UTC+00:00)
Language:

Cosmos 2228 Rocket - Orbit

View from above orbital plane
View from above orbital plane
View from above satellite
View from above satellite

Ground track
Ground track

The orbit is defined by the following mean orbital elements,

1 22287U          26072.27883370 +.00000000 +00000-0 +61489-4 0 00001
2 22287  82.5276 349.5237 0023007 328.0032  31.9783 14.80055408    02
Epoch (UTC): 13 March 2026 06:41:31
Eccentricity: 0.0023007
inclination: 82.5276°
perigee height: 613 km
apogee height: 645 km
right ascension of ascending node: 349.5237°
argument of perigee: 328.0032°
revolutions per day: 14.80055408
mean anomaly at epoch: 31.9783°

The dashed part of the orbit path shows where the satellite is in the earth's shadow,  

DLR